Погода в Михаль

Россия / Калужская область     55°11′42″N   35°27′01″E
темп.,
°C
ветер,
м/с
пор.,
м/с
влажн.,
%
обл.,
%
осадки,
мм/ч
давл.,
гПа
погр.,
м
21 апреля, ср
ср2100:00+3св3697100 0.1 1011548
03:00+2ссв2697100 0.1 1008376
06:00+2ссз2598100 0.3 1006298
09:00+2зсз2699100 0.5 1005421
12:00+3зсз3790100 0.3 1006807
15:00+5з3786100 0.4 1008828
18:00+5юз1584100 0.1 1009505
21:00+4ююз2592100 0.2 1011134
22 апреля, чт
чт2200:00+4ююз3892100 0.1 1012257
03:00+3ююз289472 0.1 1013187
06:00+1ю279870 0.0 1014163
09:00+7ююз468021 0.0 1014479
12:00+11ююз465868 0.0 10141433
15:00+13ю5751100 0.1 10131860
18:00+12ююв59655 0.1 10131158
21:00+8ююв4128577 0.1 1014407
23 апреля, пт
пт2300:00+7ю3109657 0.1 1014299
03:00+6ююв3119597 0.1 1013304
06:00+7ю41292100 0.0 1013397
09:00+10ююз5107971 0.2 1014789
12:00+12ююз51070100 0.5 10131395
15:00+11зюз61084100 2.4 1013909
18:00+8з1289100 1.6 1013294
21:00+5сз2298100 10.0 1012134
24 апреля, сб
сб2400:00+5зсз2598100 8.6 1010266
03:00+3зсз4898100 14.1 1009565
06:00+2зсз41098100 4.0 1010466
09:00+3зюз2697100 4.9 1010456
12:00+7з4671100 0.5 10101264
15:00+8зюз4657100 1.0 10091590
18:00+6зюз466776 0.5 1009923
21:00+2зюз298722 0.6 1011252
25 апреля, вс
вс2500:000юз28955 0.0 1011228
03:00−1юз399726 0.0 1011286
06:00−1юз289719 0.0 1012305
09:00+4зюз357046 0.0 10121001
12:00+5юз3561100 0.3 10131229
15:00+7юз4659100 1.7 10121557
18:00+6юз36702 1.1 10131040
21:00+1ю228214 1.3 101419